Location: Bouchavesnes-Bergen
(49.9859°N, 2.9203°E)
Time: 11:24:25
(UTC+00:00)

COSMOS 2487 - Pass Details

Date: 09 March 2021
Orbit: 433 x 436 km, 74.7° (Epoch: 12 April)

Event Time Altitude Azimuth Distance (km) Brightness Sun altitude
Exits shadow 03:51:36 50° 82° (E) 568 3.2 -23.4°
Drops below altitude 10° 03:54:34 10° 31° (NNE) 1,556 5.8 -23.0°
Sets 03:56:41 0° 27° (NNE) 2,431 6.8 -22.6°
